Weather History for KPSC - June, 2013

Change the Weather History Date:

Tuesday, June 4, 2013

  Actual Average Record
Temperature  
Mean Temperature 68 °F 66 °F  
Max Temperature 85 °F 80 °F 96 °F (2000)
Min Temperature 50 °F 51 °F 43 °F (2011)
Degree Days  
Heating Degree Days 0 2  
Month to date heating degree days 5 8  
Since 1 June heating degree days 5 8  
Since 1 July heating degree days 4712 4998  
Cooling Degree Days 3 2  
Month to date cooling degree days 4 8  
Year to date cooling degree days 50 41  
Since 1 June cooling degree days 4 8  
Growing Degree Days 18 (Base 50)    
Moisture  
Dew Point 48 °F    
Average Humidity 54    
Maximum Humidity 83    
Minimum Humidity 24    
Precipitation  
Precipitation 0.00 in 0.03 in 0.63 in (2012)
Month to date precipitation T 0.13  
Year to date precipitation 1.88 4.38  
Snow  
Snow 0.00 in - - ()
Snow Depth 0.00 in    
Sea Level Pressure  
Sea Level Pressure 30.04 in    
Wind  
Wind Speed 4 mph (NNW)    
Max Wind Speed 14 mph    
Max Gust Speed 17 mph    
Visibility 10 miles    
Events      
T = Trace of Precipitation, MM = Missing Value Source: NWS Daily Summary

Daily Weather History Graph

Daily Weather History Graph

Search for Another Location

Airport or City:

Trip Planner

Search our weather history database for the weather conditions in past years. The results will help you decide how hot, cold, wet, or windy it might be!

Date:

Astronomy

Jun. 04, 2013 Rise Set
Actual Time 5:06 AM PDT 8:43 PM PDT
Civil Twilight 4:28 AM PDT 9:21 PM PDT
Nautical Twilight 3:37 AM PDT 10:12 PM PDT
Astronomical Twilight 2:29 AM PDT 11:21 PM PDT
Moon 2:50 AM PDT (6/4) 5:08 PM PDT (6/4)
Length of Visible Light 16h 53m
Length of Day
15h 37m
Waning Crescent, 13% of the Moon is Illuminated
Jun 4
Waning Crescent
Jun 8
New
Jun 16
First Quarter
Jun 23
Full
Jun 29
Last Quarter

Hourly Weather History & Observations

Time (PDT) Temp. Dew Point Humidity Pressure Visibility Wind Dir Wind Speed Gust Speed Precip Events Conditions
12:53 AM 59.0 °F 48.0 °F 67% 30.00 in 10.0 mi Calm Calm - N/A   Clear
1:53 AM 55.0 °F 48.0 °F 77% 30.00 in 10.0 mi Variable 3.5 mph - N/A   Clear
2:53 AM 51.1 °F 46.9 °F 86% 30.02 in 10.0 mi North 3.5 mph - N/A   Clear
3:53 AM 52.0 °F 46.9 °F 83% 30.03 in 10.0 mi North 4.6 mph - N/A   Clear
4:53 AM 51.1 °F 46.9 °F 86% 30.05 in 10.0 mi Calm Calm - N/A   Clear
5:53 AM 51.1 °F 46.9 °F 86% 30.07 in 10.0 mi Calm Calm - N/A   Clear
6:53 AM 57.0 °F 48.9 °F 74% 30.09 in 10.0 mi North 4.6 mph - N/A   Clear
7:53 AM 62.1 °F 48.9 °F 62% 30.10 in 10.0 mi North 4.6 mph - N/A   Clear
8:53 AM 64.9 °F 48.9 °F 56% 30.11 in 10.0 mi NNE 5.8 mph - N/A   Clear
9:53 AM 70.0 °F 50.0 °F 49% 30.11 in 10.0 mi Variable 3.5 mph - N/A   Clear
10:53 AM 73.0 °F 51.1 °F 46% 30.10 in 10.0 mi Variable 5.8 mph - N/A   Clear
11:53 AM 77.0 °F 50.0 °F 39% 30.09 in 10.0 mi NNW 8.1 mph - N/A   Clear
12:53 PM 80.1 °F 48.9 °F 34% 30.07 in 10.0 mi NW 9.2 mph - N/A   Clear
1:53 PM 82.0 °F 45.0 °F 27% 30.06 in 10.0 mi NNW 9.2 mph - N/A   Clear
2:53 PM 82.9 °F 43.0 °F 24% 30.04 in 10.0 mi North 9.2 mph - N/A   Clear
3:53 PM 84.0 °F 44.1 °F 25% 30.02 in 10.0 mi NW 9.2 mph - N/A   Clear
4:53 PM 82.9 °F 43.0 °F 24% 30.01 in 10.0 mi Variable 4.6 mph - N/A   Clear
5:53 PM 82.9 °F 43.0 °F 24% 29.99 in 10.0 mi Variable 4.6 mph - N/A   Clear
6:53 PM 82.9 °F 44.1 °F 25% 29.99 in 10.0 mi Variable 3.5 mph - N/A   Clear
7:53 PM 82.0 °F 45.0 °F 27% 29.98 in 10.0 mi NNW 4.6 mph - N/A   Clear
8:53 PM 75.0 °F 51.1 °F 43% 29.98 in 10.0 mi Calm Calm - N/A   Clear
9:53 PM 66.9 °F 53.1 °F 61% 29.99 in 10.0 mi North 4.6 mph - N/A   Clear
10:53 PM 66.9 °F 53.1 °F 61% 29.99 in 10.0 mi Calm Calm - N/A   Clear
11:53 PM 59.0 °F 51.1 °F 75% 29.99 in 10.0 mi North 6.9 mph - N/A   Clear